This demonstration page uses our WeatherBlox Daily Observations layout. Learn more.

39.08367, -84.50855

Hourly Observations for June 19, 2019

Temp ( °F °C ) Dew Point ( °F °C ) Humidity (%) Winds ( mph kmh ) Pressure ( in mb ) Visibility ( mi km ) Precip ( " mm )
12:25 am 00:25 Partly Cloudy with Mist and Fog 70 21.1 69 20.6 97 97 Calm 29.85 1011 2.5 4.02336 0.001 0.001
12:39 am 00:39 Mostly Cloudy with Mist and Fog 70 21.1 70 21.1 100 100 Calm 29.85 1011 1 1.609344 0.001 0.001
12:53 am 00:53 Mostly Cloudy with Fog 69 20.6 69 20.6 100 100 Calm 29.83 1010 0.5 0.804672 0.001 0.001
1:11 am 01:11 Cloudy with Mist and Fog 70 21.1 69 20.6 97 97 Calm 29.85 1011 2 3.218688 0 0
1:18 am 01:18 Cloudy with Mist and Fog 69 20.6 69 20.6 100 100 Calm 29.85 1011 0.75 1.207008 0 0
1:27 am 01:27 Cloudy with Fog 69 20.6 69 20.6 100 100 Calm 29.85 1011 0.5 0.804672 0 0
1:49 am 01:49 Mostly Cloudy with Fog 70 21 68 20 94 94 Calm 29.83 1010 0.25 0.402336 0 0
1:53 am 01:53 Mostly Cloudy with Fog 68 20 68 20 100 100 Calm 29.83 1010 0.25 0.402336 0 0
2:53 am 02:53 Mostly Cloudy with Fog 69 20.6 69 20.6 100 100 Calm 29.8 1009 0.25 0.402336 0 0
3:53 am 03:53 Mostly Cloudy with Fog 69 20.6 69 20.6 100 100 Calm 29.8 1009 0.25 0.402336 0 0
4:53 am 04:53 Mostly Cloudy with Fog 68 20 68 20 100 100 Calm 29.8 1009 0.25 0.402336 0 0
5:29 am 05:29 Mostly Cloudy with Fog 68 20 68 20 100 100 SW 3 6 29.83 1010 0.25 0.402336 0 0
5:37 am 05:37 Mostly Cloudy with Fog 68 20 68 20 100 100 Calm 29.83 1010 0.5 0.804672 0 0
5:53 am 05:53 Mostly Cloudy with Mist and Fog 68 20 68 20 100 100 S 3 6 29.8 1009 0.75 1.207008 0 0
6:24 am 06:24 Mostly Cloudy with Fog 68 20 67 19.4 96 96 Calm 29.8 1009 0.5 0.804672 0 0
6:53 am 06:53 Mostly Cloudy with Fog 68 20 68 20 100 100 Calm 29.8 1009 0.5 0.804672 0 0
7:53 am 07:53 Mostly Cloudy with Fog 69 20.6 69 20.6 100 100 Calm 29.8 1009 0.5 0.804672 0 0
8:09 am 08:09 Cloudy with Mist and Fog 70 21.1 69 20.6 97 97 Calm 29.8 1009 1.5 2.414016 0 0
8:23 am 08:23 Cloudy with Mist and Fog 70 21.1 69 20.6 97 97 Calm 29.8 1009 3 4.828032 0 0
8:53 am 08:53 Cloudy with Mist and Fog 71 21.7 70 21.1 96 96 Calm 29.8 1009 3 4.828032 0 0
9:32 am 09:32 Cloudy with Mist and Fog 72 22.2 71 21.7 97 97 SW 5 7 29.8 1009 6 9.656064 0 0
9:53 am 09:53 Mostly Cloudy 73 22.8 71 21.7 94 94 Calm 29.77 1008 10 16.09344 0 0
10:26 am 10:26 Partly Cloudy 77 25 70 21.1 79 79 Calm 29.8 1009 10 16.09344 0 0
10:53 am 10:53 Mostly Cloudy 77 25 71 21.7 82 82 SSW 5 7 29.77 1008 10 16.09344 0 0
11:53 am 11:53 Cloudy with Light Rain 75 23.9 70 21.1 84 84 Calm 29.77 1008 8 12.874752 0.16 4.064
12:53 pm 12:53 Mostly Cloudy 74 23.3 72 22.2 94 94 NNE 3 6 29.74 1007 8 12.874752 0.07 1.778
1:53 pm 13:53 Mostly Cloudy 77 25 74 23.3 90 90 ENE 3 6 29.71 1006 8 12.874752 0.05 1.27
2:53 pm 14:53 Mostly Cloudy 82 27.8 73 22.8 74 74 SE 8 13 29.68 1005 10 16.09344 0 0
3:53 pm 15:53 Mostly Cloudy 82 27.8 72 22.2 72 72 S 8 13 29.65 1004 10 16.09344 0 0
4:53 pm 16:53 Partly Cloudy 82 27.8 70 21.1 67 67 SSW 10 17 29.62 1003 10 16.09344 0 0
5:53 pm 17:53 Sunny 81 27.2 73 22.8 77 77 S 5 7 29.62 1003 10 16.09344 0 0
6:07 pm 18:07 Partly Cloudy with Light Thunderstorms 81 27.2 72 22.2 74 74 S 12 19 29.65 1004 7 11.265408 0.001 0.001
6:42 pm 18:42 Cloudy with Light Thunderstorms 75 23.9 70 21.1 84 84 NW 12 19 29.65 1004 7 11.265408 0.01 0.254
6:50 pm 18:50 Cloudy with Heavy Thunderstorms 72 22 70 21 94 94 WSW 21 33 29.71 1006 0.75 1.207008 0.23 5.842
6:53 pm 18:53 Cloudy with Heavy Thunderstorms 70 21.1 69 20.6 97 97 WSW 20 31 29.68 1005 1 1.609344 0.39 9.906
7:06 pm 19:06 Cloudy with Thunderstorms 70 21.1 69 20.6 97 97 VRB 6 9 29.68 1005 3 4.828032 0.26 6.604
7:53 pm 19:53 Cloudy with Light Thunderstorms 70 21.1 68 20 93 93 SSW 6 9 29.68 1005 4 6.437376 0.36 9.144
8:26 pm 20:26 Cloudy with Light Rain 70 21.1 69 20.6 97 97 ESE 6 9 29.68 1005 4 6.437376 0.11 2.794
8:53 pm 20:53 Mostly Cloudy with Light Rain 70 21.1 69 20.6 97 97 VRB 5 7 29.65 1004 6 9.656064 0.14 3.556
9:41 pm 21:41 Partly Cloudy with Mist and Fog 69 20.6 69 20.6 100 100 SSW 5 7 29.68 1005 6 9.656064 0.001 0.001
9:53 pm 21:53 Mostly Clear with Mist and Fog 69 20.6 69 20.6 100 100 SSW 5 7 29.65 1004 5 8.04672 0.001 0.001
10:53 pm 22:53 Mostly Cloudy 69 20.6 68 20 96 96 S 5 7 29.65 1004 7 11.265408 0 0
11:53 pm 23:53 Cloudy with Light Rain 69 20.6 68 20 96 96 S 5 7 29.62 1003 7 11.265408 0.01 0.254

Powered by AerisWeather